• Em Portugal
  • Lista de países
  • Para 7 dias
  • Temperatura da água
  • Mapas de satélite
  • Mapa do tempo
  • Widgets de tempo
  • user-avatar
    Iniciar Sessão

    Previsão horária em Adamowo

    Hoje, 21 Outubro, Domingo

    Tempo Temperatura Precipitação Vento Pressão Humidade
    00:00 +8°C° 0 mm 1 m/s 765 mmHg 91%
    01:00 +7°C° 0 mm 1 m/s 765 mmHg 92%
    02:00 +7°C° 0 mm 1 m/s 765 mmHg 93%
    03:00 +7°C° 0 mm 1 m/s 766 mmHg 93%
    04:00 +7°C° 0 mm 1 m/s 766 mmHg 94%
    05:00 +7°C° 0 mm 1 m/s 766 mmHg 94%
    06:00 +7°C° 0 mm 1 m/s 766 mmHg 94%
    07:00 +7°C° 0 mm 1 m/s 767 mmHg 95%
    08:00 +9°C° 0 mm 1 m/s 767 mmHg 88%
    09:00 +9°C° 0 mm 2 m/s 767 mmHg 81%
    10:00 +12°C° 0 mm 2 m/s 767 mmHg 74%
    11:00 +13°C° 0 mm 2 m/s 767 mmHg 70%
    12:00 +14°C° 0 mm 2 m/s 767 mmHg 65%
    13:00 +14°C° 0 mm 2 m/s 767 mmHg 60%
    14:00 +14°C° 0 mm 2 m/s 767 mmHg 63%
    15:00 +13°C° 0 mm 1 m/s 767 mmHg 65%
    16:00 +13°C° 0 mm 1 m/s 767 mmHg 68%
    17:00 +12°C° 0 mm 2 m/s 767 mmHg 72%
    18:00 +10°C° 0 mm 2 m/s 767 mmHg 76%
    19:00 +9°C° 0 mm 2 m/s 767 mmHg 80%
    20:00 +8°C° 0 mm 2 m/s 767 mmHg 82%
    21:00 +8°C° 0 mm 2 m/s 766 mmHg 84%
    22:00 +8°C° 0 mm 3 m/s 766 mmHg 86%
    23:00 +7°C° 0 mm 3 m/s 766 mmHg 88%

    Amanhã, 22 Outubro, Segunda-feira

    Tempo Temperatura Precipitação Vento Pressão Humidade
    00:00 +7°C° 0 mm 3 m/s 766 mmHg 89%
    01:00 +7°C° 0 mm 3 m/s 766 mmHg 90%
    02:00 +7°C° 0 mm 3 m/s 766 mmHg 90%
    03:00 +6°C° 0 mm 4 m/s 765 mmHg 91%
    04:00 +5°C° 0 mm 4 m/s 765 mmHg 91%
    05:00 +5°C° 0 mm 4 m/s 765 mmHg 91%
    06:00 +5°C° 0 mm 4 m/s 765 mmHg 91%
    07:00 +5°C° 0 mm 4 m/s 764 mmHg 91%
    08:00 +7°C° 0 mm 5 m/s 764 mmHg 84%
    09:00 +8°C° 0 mm 5 m/s 764 mmHg 77%
    10:00 +10°C° 0 mm 5 m/s 764 mmHg 70%
    11:00 +10°C° 0.3 mm 5 m/s 763 mmHg 72%
    12:00 +10°C° 0.3 mm 5 m/s 763 mmHg 75%
    13:00 +10°C° 0.3 mm 5 m/s 763 mmHg 78%
    14:00 +9°C° 0.6 mm 5 m/s 763 mmHg 81%
    15:00 +9°C° 0.6 mm 5 m/s 763 mmHg 84%
    16:00 +9°C° 0.6 mm 5 m/s 763 mmHg 88%
    17:00 +8°C° 0.1 mm 4 m/s 763 mmHg 85%
    18:00 +8°C° 0.1 mm 4 m/s 763 mmHg 83%
    19:00 +7°C° 0.1 mm 4 m/s 763 mmHg 81%
    20:00 +6°C° 0 mm 4 m/s 763 mmHg 81%
    21:00 +6°C° 0 mm 4 m/s 764 mmHg 81%
    22:00 +5°C° 0 mm 4 m/s 764 mmHg 81%
    23:00 +5°C° 0 mm 4 m/s 764 mmHg 81%

    Depois de amanhã, 23 Outubro, Terça-feira

    Tempo Temperatura Precipitação Vento Pressão Humidade
    00:00 +5°C° 0 mm 4 m/s 764 mmHg 82%
    01:00 +4°C° 0 mm 4 m/s 763 mmHg 82%
    02:00 +4°C° 0 mm 4 m/s 763 mmHg 83%
    03:00 +4°C° 0 mm 4 m/s 762 mmHg 85%
    04:00 +3°C° 0 mm 5 m/s 761 mmHg 86%
    05:00 +3°C° 0.1 mm 5 m/s 761 mmHg 84%
    06:00 +4°C° 0.1 mm 6 m/s 760 mmHg 83%
    07:00 +4°C° 0.1 mm 7 m/s 759 mmHg 82%
    08:00 +4°C° 0.4 mm 8 m/s 758 mmHg 80%
    09:00 +5°C° 0.4 mm 9 m/s 756 mmHg 79%
    10:00 +5°C° 0.4 mm 10 m/s 755 mmHg 77%
    11:00 +5°C° 0.6 mm 10 m/s 754 mmHg 77%
    12:00 +6°C° 0.6 mm 11 m/s 752 mmHg 78%
    13:00 +6°C° 0.6 mm 11 m/s 751 mmHg 79%
    14:00 +6°C° 1.1 mm 11 m/s 749 mmHg 80%
    15:00 +7°C° 1.1 mm 11 m/s 747 mmHg 80%
    16:00 +7°C° 1.1 mm 11 m/s 746 mmHg 81%
    17:00 +7°C° 2 mm 11 m/s 745 mmHg 83%
    18:00 +8°C° 2 mm 10 m/s 743 mmHg 85%
    19:00 +8°C° 2 mm 10 m/s 742 mmHg 87%
    20:00 +8°C° 0.8 mm 9 m/s 742 mmHg 85%
    21:00 +9°C° 0.8 mm 8 m/s 742 mmHg 82%
    22:00 +8°C° 0.8 mm 7 m/s 742 mmHg 80%
    23:00 +8°C° 0.6 mm 7 m/s 742 mmHg 80%

    24 Outubro, Quarta-feira

    Tempo Temperatura Precipitação Vento Pressão Humidade
    00:00 +6°C° 0.6 mm 7 m/s 742 mmHg 80%
    01:00 +6°C° 0.6 mm 7 m/s 743 mmHg 79%
    02:00 +5°C° 0.7 mm 8 m/s 743 mmHg 74%
    03:00 +5°C° 0.7 mm 8 m/s 744 mmHg 68%
    04:00 +3°C° 0.7 mm 9 m/s 744 mmHg 63%
    05:00 +3°C° 0.1 mm 9 m/s 745 mmHg 62%
    06:00 +2°C° 0.1 mm 9 m/s 746 mmHg 62%
    07:00 +2°C° 0.1 mm 9 m/s 746 mmHg 62%
    08:00 +3°C° 0.2 mm 10 m/s 747 mmHg 60%
    09:00 +3°C° 0.2 mm 11 m/s 747 mmHg 59%
    10:00 +4°C° 0.2 mm 11 m/s 748 mmHg 57%
    11:00 +4°C° 0.3 mm 11 m/s 748 mmHg 57%
    12:00 +4°C° 0.3 mm 11 m/s 749 mmHg 57%
    13:00 +4°C° 0.3 mm 11 m/s 749 mmHg 56%
    14:00 +4°C° 0.2 mm 11 m/s 750 mmHg 58%
    15:00 +5°C° 0.2 mm 10 m/s 750 mmHg 60%
    16:00 +5°C° 0.2 mm 10 m/s 750 mmHg 61%
    17:00 +5°C° 0.1 mm 9 m/s 751 mmHg 63%
    18:00 +3°C° 0.1 mm 9 m/s 751 mmHg 64%
    19:00 +3°C° 0.1 mm 9 m/s 752 mmHg 65%
    20:00 +4°C° 0.1 mm 8 m/s 752 mmHg 65%
    21:00 +4°C° 0.1 mm 8 m/s 753 mmHg 66%
    22:00 +4°C° 0.1 mm 7 m/s 753 mmHg 67%
    23:00 +4°C° 0 mm 7 m/s 753 mmHg 67%

    25 Outubro, Quinta-feira

    Tempo Temperatura Precipitação Vento Pressão Humidade
    00:00 +3°C° 0 mm 7 m/s 753 mmHg 68%
    01:00 +3°C° 0 mm 6 m/s 753 mmHg 69%
    02:00 +3°C° 0 mm 6 m/s 753 mmHg 69%
    03:00 +3°C° 0 mm 6 m/s 753 mmHg 70%
    04:00 +2°C° 0 mm 6 m/s 753 mmHg 71%
    05:00 +2°C° 0 mm 5 m/s 753 mmHg 70%
    06:00 +2°C° 0 mm 5 m/s 753 mmHg 70%
    07:00 +2°C° 0 mm 5 m/s 753 mmHg 69%
    08:00 +3°C° 0.3 mm 5 m/s 752 mmHg 74%
    09:00 +3°C° 0.3 mm 6 m/s 751 mmHg 79%
    10:00 +4°C° 0.3 mm 6 m/s 751 mmHg 84%
    11:00 +5°C° 0.5 mm 7 m/s 750 mmHg 83%
    12:00 +7°C° 0.5 mm 8 m/s 749 mmHg 82%
    13:00 +9°C° 0.5 mm 8 m/s 748 mmHg 81%
    14:00 +9°C° 0.2 mm 8 m/s 747 mmHg 81%
    15:00 +9°C° 0.2 mm 8 m/s 747 mmHg 82%
    16:00 +8°C° 0.2 mm 9 m/s 746 mmHg 82%
    17:00 +9°C° 0.1 mm 8 m/s 746 mmHg 80%
    18:00 +9°C° 0.1 mm 8 m/s 746 mmHg 78%
    19:00 +7°C° 0.1 mm 8 m/s 746 mmHg 77%
    20:00 +8°C° 0 mm 7 m/s 746 mmHg 75%
    21:00 +8°C° 0 mm 7 m/s 747 mmHg 74%
    22:00 +6°C° 0 mm 7 m/s 747 mmHg 73%
    23:00 +6°C° 0 mm 7 m/s 747 mmHg 73%

    26 Outubro, Sexta-feira

    Tempo Temperatura Precipitação Vento Pressão Humidade
    00:00 +7°C° 0 mm 6 m/s 748 mmHg 73%
    01:00 +5°C° 0 mm 6 m/s 748 mmHg 73%
    02:00 +5°C° 0 mm 6 m/s 748 mmHg 74%
    03:00 +6°C° 0 mm 5 m/s 748 mmHg 75%
    04:00 +5°C° 0 mm 5 m/s 749 mmHg 77%
    05:00 +5°C° 0 mm 5 m/s 749 mmHg 78%
    06:00 +5°C° 0 mm 5 m/s 749 mmHg 80%
    07:00 +5°C° 0 mm 5 m/s 749 mmHg 81%
    08:00 +7°C° 0 mm 5 m/s 749 mmHg 76%
    09:00 +8°C° 0 mm 5 m/s 750 mmHg 71%
    10:00 +9°C° 0 mm 6 m/s 750 mmHg 66%
    11:00 +9°C° 0 mm 5 m/s 749 mmHg 65%
    12:00 +10°C° 0 mm 5 m/s 749 mmHg 64%
    13:00 +10°C° 0 mm 5 m/s 749 mmHg 63%
    14:00 +10°C° 0.7 mm 4 m/s 749 mmHg 71%
    15:00 +8°C° 0.7 mm 4 m/s 748 mmHg 79%
    16:00 +8°C° 0.7 mm 4 m/s 748 mmHg 86%
    17:00 +8°C° 1 mm 4 m/s 748 mmHg 86%
    18:00 +8°C° 1 mm 5 m/s 747 mmHg 86%
    19:00 +8°C° 1 mm 6 m/s 747 mmHg 86%
    20:00 +8°C° 0.1 mm 6 m/s 747 mmHg 86%
    21:00 +7°C° 0.1 mm 6 m/s 746 mmHg 87%
    22:00 +7°C° 0.1 mm 6 m/s 746 mmHg 87%
    23:00 +7°C° 0 mm 6 m/s 746 mmHg 87%
    Mostrar mais